Location: ???????
(55.3754°N, 39.3545°E)
Time: 21:37:39
(UTC+00:00)

Cosmos 2360 Rocket - Pass Details

Date: 14 April 2026
Orbit: 831 x 845 km, 71.0° (Epoch: 11 May)

Event Time Altitude Azimuth Distance (km) Brightness Sun altitude
Rises 23:10:04 0° 323° (NW) 3,410 5.7 -21.2°
Reaches altitude 10° 23:12:47 10° 333° (NNW) 2,475 5.0 -21.0°
Maximum altitude 23:17:52 32° 36° (NE) 1,411 4.0 -20.6°
Drops below altitude 10° 23:22:56 10° 100° (E) 2,470 4.9 -20.3°
Sets 23:25:38 0° 110° (ESE) 3,403 5.5 -20.1°
